Mongaup Valley, NY

11:58 PM EDT on August 30, 2016 (GMT -0400)
Sullivan County International

Weather History for KMSV - July, 2013

Change the Weather History Date:

Monday, July 8, 2013

  Actual Average Record
Temperature  
Mean Temperature 74 °F -  
Max Temperature 82 °F 74 °F 91 °F (2010)
Min Temperature 66 °F 54 °F 46 °F (2000)
Cooling Degree Days 9    
Growing Degree Days 24 (Base 50)    
Moisture  
Dew Point 62 °F    
Average Humidity 72    
Maximum Humidity 88    
Minimum Humidity 54    
Precipitation  
Precipitation 0.00 in - - ()
Sea Level Pressure  
Sea Level Pressure 30.07 in    
Wind  
Wind Speed 6 mph (West)    
Max Wind Speed 13 mph    
Max Gust Speed 20 mph    
Visibility 10 miles    
Events Thunderstorm    
Averages and records for this station are not official NWS values.
T = Trace of Precipitation, MM = Missing Value Source: NWS Daily Summary

Daily Weather History Graph

Daily Weather History Graph

Search for Another Location

Airport or City:

Trip Planner

Search our weather history database for the weather conditions in past years. The results will help you decide how hot, cold, wet, or windy it might be!

Date:

Astronomy

Jul. 08, 2013 Rise Set
Actual Time 5:32 AM EDT 8:35 PM EDT
Civil Twilight 4:59 AM EDT 9:09 PM EDT
Nautical Twilight 4:16 AM EDT 9:51 PM EDT
Astronomical Twilight 3:25 AM EDT 10:42 PM EDT
Moon 6:00 AM EDT (7/8) 8:34 PM EDT (7/8)
Length of Visible Light 16h 09m
Length of Day
15h 02m
New Moon, 0% of the Moon is Illuminated
Jul 8
New Moon
Jul 15
First Quarter
Jul 22
Full
Jul 29
Last Quarter
Aug 6
New

Hourly Weather History & Observations

Time (EDT) Temp. Heat Index Dew Point Humidity Pressure Visibility Wind Dir Wind Speed Gust Speed Precip Events Conditions
12:15 AM 69.8 °F - 60.8 °F 73% 30.04 in 10.0 mi West 6.9 mph - N/A   Clear
12:35 AM 69.8 °F - 60.8 °F 73% 30.04 in 10.0 mi West 5.8 mph - N/A   Clear
12:55 AM 68.0 °F - 60.8 °F 78% 30.04 in 10.0 mi West 5.8 mph - N/A   Clear
1:15 AM 68.0 °F - 60.8 °F 78% 30.05 in 10.0 mi West 4.6 mph - N/A   Clear
1:35 AM 68.0 °F - 60.8 °F 78% 30.05 in 10.0 mi West 5.8 mph - N/A   Clear
1:55 AM 66.2 °F - 60.8 °F 83% 30.05 in 10.0 mi West 4.6 mph - N/A   Partly Cloudy
2:15 AM 66.2 °F - 60.8 °F 83% 30.05 in 10.0 mi WSW 5.8 mph - N/A   Scattered Clouds
2:35 AM 66.2 °F - 60.8 °F 83% 30.04 in 10.0 mi West 6.9 mph - N/A   Clear
2:55 AM 66.2 °F - 60.8 °F 83% 30.04 in 10.0 mi West 6.9 mph - N/A   Clear
3:15 AM 66.2 °F - 60.8 °F 83% 30.04 in 10.0 mi West 6.9 mph - N/A   Scattered Clouds
3:35 AM 66.2 °F - 62.6 °F 88% 30.04 in 10.0 mi West 4.6 mph - N/A   Overcast
3:55 AM 66.2 °F - 62.6 °F 88% 30.04 in 10.0 mi West 5.8 mph - N/A   Mostly Cloudy
4:15 AM 66.2 °F - 60.8 °F 83% 30.05 in 10.0 mi West 5.8 mph - N/A   Mostly Cloudy
4:35 AM 66.2 °F - 62.6 °F 88% 30.05 in 10.0 mi SW 3.5 mph - N/A   Mostly Cloudy
4:55 AM 66.2 °F - 60.8 °F 83% 30.05 in 10.0 mi WSW 3.5 mph - N/A   Partly Cloudy
5:15 AM 66.2 °F - 60.8 °F 83% 30.06 in 10.0 mi Calm Calm - N/A   Clear
5:35 AM 66.2 °F - 60.8 °F 83% 30.06 in 9.0 mi WSW 3.5 mph - N/A   Clear
5:55 AM 66.2 °F - 60.8 °F 83% 30.06 in 9.0 mi WSW 4.6 mph - N/A   Clear
6:15 AM 66.2 °F - 60.8 °F 83% 30.07 in 8.0 mi WSW 3.5 mph - N/A   Clear
6:35 AM 66.2 °F - 60.8 °F 83% 30.07 in 8.0 mi WSW 6.9 mph - N/A   Clear
6:55 AM 68.0 °F - 62.6 °F 83% 30.08 in 10.0 mi WSW 5.8 mph - N/A   Mostly Cloudy
7:15 AM 68.0 °F - 62.6 °F 83% 30.08 in 10.0 mi West 6.9 mph - N/A   Scattered Clouds
7:35 AM 69.8 °F - 62.6 °F 78% 30.08 in 10.0 mi West 5.8 mph - N/A   Partly Cloudy
7:55 AM 69.8 °F - 64.4 °F 83% 30.09 in 10.0 mi West 6.9 mph - N/A   Partly Cloudy
8:15 AM 71.6 °F - 64.4 °F 78% 30.09 in 10.0 mi West 8.1 mph - N/A   Mostly Cloudy
8:35 AM 71.6 °F - 62.6 °F 73% 30.09 in 10.0 mi West 6.9 mph - N/A   Overcast
8:55 AM 73.4 °F - 62.6 °F 69% 30.09 in 10.0 mi West 11.5 mph - N/A   Mostly Cloudy
9:15 AM 73.4 °F - 62.6 °F 69% 30.09 in 10.0 mi WNW 10.4 mph - N/A   Mostly Cloudy
9:35 AM 73.4 °F - 64.4 °F 73% 30.09 in 10.0 mi West 5.8 mph - N/A   Scattered Clouds
9:55 AM 73.4 °F - 62.6 °F 69% 30.09 in 10.0 mi West 8.1 mph - N/A   Mostly Cloudy
10:15 AM 77.0 °F - 64.4 °F 65% 30.09 in 10.0 mi West 9.2 mph - N/A   Mostly Cloudy
10:35 AM 75.2 °F - 64.4 °F 69% 30.09 in 10.0 mi WSW 6.9 mph - N/A   Mostly Cloudy
10:55 AM 78.8 °F - 64.4 °F 61% 30.09 in 10.0 mi WNW 4.6 mph - N/A   Mostly Cloudy
11:15 AM 77.0 °F - 62.6 °F 61% 30.10 in 10.0 mi WNW 6.9 mph - N/A   Overcast
11:35 AM 77.0 °F - 62.6 °F 61% 30.10 in 10.0 mi West 10.4 mph - N/A   Mostly Cloudy
11:55 AM 78.8 °F - 64.4 °F 61% 30.10 in 10.0 mi West 10.4 mph - N/A   Mostly Cloudy
12:15 PM 77.0 °F - 64.4 °F 65% 30.10 in 10.0 mi WNW 10.4 mph - N/A   Mostly Cloudy
12:35 PM 78.8 °F - 64.4 °F 61% 30.10 in 10.0 mi WNW 4.6 mph - N/A   Scattered Clouds
12:55 PM 78.8 °F - 64.4 °F 61% 30.09 in 10.0 mi West 6.9 mph - N/A   Clear
1:15 PM 80.6 °F 82.3 °F 64.4 °F 58% 30.09 in 10.0 mi WSW 10.4 mph - N/A   Clear
1:35 PM 80.6 °F 82.3 °F 64.4 °F 58% 30.08 in 10.0 mi West 10.4 mph - N/A   Clear
1:55 PM 82.4 °F 83.9 °F 64.4 °F 54% 30.08 in 10.0 mi WSW 9.2 mph - N/A   Partly Cloudy
2:15 PM 80.6 °F 81.8 °F 62.6 °F 54% 30.07 in 10.0 mi WNW 10.4 mph - N/A   Mostly Cloudy
2:35 PM 80.6 °F 81.8 °F 62.6 °F 54% 30.07 in 10.0 mi West 6.9 mph - N/A   Mostly Cloudy
2:55 PM 82.4 °F 83.9 °F 64.4 °F 54% 30.06 in 10.0 mi West 11.5 mph - N/A   Mostly Cloudy
3:15 PM 80.6 °F 82.3 °F 64.4 °F 58% 30.06 in 10.0 mi WNW 4.6 mph - N/A   Scattered Clouds
3:35 PM 80.6 °F 81.8 °F 62.6 °F 54% 30.05 in 10.0 mi WNW 6.9 mph - N/A   Mostly Cloudy
3:55 PM 80.6 °F 82.3 °F 64.4 °F 58% 30.05 in 10.0 mi West 5.8 mph - N/A   Scattered Clouds
4:15 PM 80.6 °F 82.3 °F 64.4 °F 58% 30.05 in 10.0 mi West 8.1 mph - N/A   Partly Cloudy
4:35 PM 82.4 °F 83.9 °F 64.4 °F 54% 30.05 in 10.0 mi WSW 6.9 mph - N/A   Partly Cloudy
4:55 PM 80.6 °F 82.3 °F 64.4 °F 58% 30.04 in 10.0 mi WSW 5.8 mph - N/A   Partly Cloudy
5:15 PM 80.6 °F 82.3 °F 64.4 °F 58% 30.04 in 10.0 mi WSW 4.6 mph - N/A   Clear
5:35 PM 78.8 °F - 62.6 °F 57% 30.04 in 10.0 mi West 3.5 mph - N/A Thunderstorm Partly Cloudy
5:55 PM 77.0 °F - 62.6 °F 61% 30.04 in 10.0 mi WNW 6.9 mph - N/A   Partly Cloudy
6:15 PM 75.2 °F - 60.8 °F 61% 30.04 in 10.0 mi NW 5.8 mph - N/A   Clear
6:35 PM 75.2 °F - 60.8 °F 61% 30.05 in 10.0 mi WNW 9.2 mph - N/A   Partly Cloudy
6:55 PM 75.2 °F - 62.6 °F 65% 30.06 in 10.0 mi WNW 12.7 mph 19.6 mph N/A   Mostly Cloudy
7:15 PM 71.6 °F - 62.6 °F 73% 30.07 in 10.0 mi NW 12.7 mph 18.4 mph N/A   Mostly Cloudy
7:35 PM 71.6 °F - 60.8 °F 69% 30.06 in 10.0 mi WNW 5.8 mph - N/A   Scattered Clouds
7:55 PM 71.6 °F - 60.8 °F 69% 30.08 in 10.0 mi WNW 5.8 mph - N/A   Clear
8:15 PM 71.6 °F - 60.8 °F 69% 30.08 in 10.0 mi West 3.5 mph - N/A   Partly Cloudy
8:35 PM 69.8 °F - 60.8 °F 73% 30.09 in 10.0 mi WSW 3.5 mph - N/A   Partly Cloudy
8:55 PM 69.8 °F - 60.8 °F 73% 30.10 in 10.0 mi West 3.5 mph - N/A   Mostly Cloudy
9:15 PM 69.8 °F - 62.6 °F 78% 30.10 in 10.0 mi West 5.8 mph - N/A   Overcast
9:35 PM 69.8 °F - 62.6 °F 78% 30.12 in 10.0 mi WSW 3.5 mph - N/A   Overcast
9:55 PM 69.8 °F - 62.6 °F 78% 30.11 in 10.0 mi West 4.6 mph - N/A   Overcast
10:15 PM 68.0 °F - 62.6 °F 83% 30.11 in 8.0 mi Calm Calm - N/A   Overcast
10:35 PM 68.0 °F - 62.6 °F 83% 30.11 in 10.0 mi West 3.5 mph - N/A   Overcast
10:55 PM 66.2 °F - 62.6 °F 88% 30.12 in 8.0 mi NNW 4.6 mph - N/A   Overcast
11:15 PM 68.0 °F - 62.6 °F 83% 30.11 in 10.0 mi West 4.6 mph - N/A   Mostly Cloudy
11:35 PM 66.2 °F - 62.6 °F 88% 30.11 in 10.0 mi West 4.6 mph - N/A   Mostly Cloudy
11:55 PM 66.2 °F - 60.8 °F 83% 30.10 in 10.0 mi Calm Calm - N/A   Mostly Cloudy